User: anonymous   Login
Location: Fort Wayne
(41.1310°N, 85.1290°W)
Time: 10:11:34
(UTC-04:00)
Language:

Tiros 1 despin weight - Orbit

View from above orbital plane
View from above orbital plane
View from above satellite
View from above satellite

Ground track
Ground track

The orbit data is extracted from the following two-line orbital elements,

1 00115U 60002D   15211.04486065  .00000326  00000-0  67605-4 0  9997
2 00115 048.1658 208.6587 0036144 309.3005 050.4704 14.82225516948103
Epoch (UTC): 30 July 2015 01:04:35
Eccentricity: 0.0036144
inclination: 48.1658°
perigee height: 597 km
apogee height: 647 km
right ascension of ascending node: 208.6587°
argument of perigee: 309.3005°
revolutions per day: 14.82225516
mean anomaly at epoch: 50.4704°
orbit number at epoch: 94810

The dashed part of the orbit path shows where the satellite is in the earth's shadow,  

DLR